Michael S — WDE9794 — position and weather

sailwx.info

Track history (hours):
 
Tides and Currents Weather Stations Pressure Air Temp Water Temp Dewpoint Dewpoint Depression Visibility Wind Speed Wind Dir Waves Ship Positions

Michael S

Owner: Bisso Tow Boats Inc., New Orleans, LA. More information available from US FCC via Universal Licensing System and Coast Guard Vessel Documentation Center.

Last reported at 2014-Nov-01 07:26 UTC. Time now 2014-Nov-01 09:49 UTC.
Position N 29°57' W 089°60'.

Length 33 m; draft 3 m.

Type: Towing. MMSI: 367413700.

Date/timePositionNaut miles runAvg speedWind from/ knotsBaromVisibWave heightAir tempDewpointWater temp
2014-Nov-01 07:26N 29°57' W 089°60'2 0.4
2014-Nov-01 01:31N 29°57' W 090°02'5 2.5
2014-Oct-31 23:24N 29°55' W 089°57'4 1.1
2014-Oct-31 19:33N 29°57' W 090°01'4 2.1
2014-Oct-31 17:32N 29°55' W 089°57'2 0.2
2014-Oct-31 04:24N 29°54' W 089°54'10 1.6
2014-Oct-30 22:06N 29°55' W 090°06'1 0.1
2014-Oct-30 11:31N 29°55' W 090°05'1 1.0
2014-Oct-30 10:21N 29°55' W 090°06'1 0.3
2014-Oct-30 08:26N 29°55' W 090°05'5 3.8
2014-Oct-30 07:15N 29°57' W 090°01'0 0.0
2014-Oct-30 06:25N 29°57' W 090°01'1 0.1
2014-Oct-29 19:23N 29°58' W 090°02'1 1.6
2014-Oct-29 18:30N 29°59' W 090°01'2 1.7
2014-Oct-29 17:04N 29°57' W 090°01'5 7.2
2014-Oct-29 16:26N 29°55' W 089°56'0 0.0
2014-Oct-29 08:20N 29°55' W 089°55'1 0.1
2014-Oct-28 20:05N 29°55' W 089°57'1 0.0
2014-Oct-28 06:26N 29°55' W 089°56'5 1.1
2014-Oct-28 02:13N 29°57' W 090°01'0 0.1
2014-Oct-28 01:32N 29°57' W 090°01'4 1.0
2014-Oct-27 21:22N 29°55' W 089°57'1 1.4
2014-Oct-27 20:32N 29°56' W 089°58'3 0.6
2014-Oct-27 15:33N 29°57' W 090°01'5 0.4
2014-Oct-27 04:17N 29°55' W 089°56'4 0.4
2014-Oct-26 19:24N 29°56' W 089°60'16 3.4
2014-Oct-26 14:33N 29°40' W 089°58'17 2.1
2014-Oct-26 06:26N 29°57' W 090°01'4 0.5
2014-Oct-25 22:22N 29°55' W 089°57'5 0.6
2014-Oct-25 13:14N 29°57' W 090°02'3 0.9
2014-Oct-25 09:31N 29°55' W 090°05'4 1.0
2014-Oct-25 05:26N 29°57' W 090°01'2 0.3
2014-Oct-24 23:33N 29°56' W 089°59'0 0.1
2014-Oct-24 19:27N 29°56' W 089°59'2 1.0
2014-Oct-24 17:32N 29°57' W 090°00'20 8.9
2014-Oct-24 15:14N 29°59' W 090°24'1 2.1
2014-Oct-24 14:32N 29°57' W 090°24'4 0.5
2014-Oct-24 07:12N 29°56' W 090°20'10 0.9
2014-Oct-23 20:10N 29°55' W 090°08'5 6.9
2014-Oct-23 19:30N 29°57' W 090°03'2 1.5
2014-Oct-23 18:27N 29°57' W 090°02'6 0.9
2014-Oct-23 12:20N 29°56' W 090°08'1 1.3
2014-Oct-23 11:28N 29°57' W 090°08'2 0.9
2014-Oct-23 09:15N 29°55' W 090°07'1 0.6
2014-Oct-23 07:14N 29°55' W 090°06'0 0.0
2014-Oct-23 06:33N 29°55' W 090°06'0 0.0
2014-Oct-23 05:21N 29°55' W 090°06'0 0.0
2014-Oct-23 02:06N 29°55' W 090°06'1 0.2
2014-Oct-22 19:21N 29°55' W 090°04'1 0.4
2014-Oct-22 17:33N 29°56' W 090°04'  
Track history (hours):
 
Tides and Currents Weather Stations Pressure Air Temp Water Temp Dewpoint Dewpoint Depression Visibility Wind Speed Wind Dir Waves Ship Positions

Michael S

Owner: Bisso Tow Boats Inc., New Orleans, LA. More information available from US FCC via Universal Licensing System and Coast Guard Vessel Documentation Center.

Last reported at 2014-Nov-01 07:26 UTC. Time now 2014-Nov-01 09:49 UTC.
Position N 29°57' W 089°60'.

Length 33 m; draft 3 m.

Type: Towing. MMSI: 367413700.

Date/timePositionNaut miles runAvg speedWind from/ knotsBaromVisibWave heightAir tempDewpointWater temp
2014-Nov-01 07:26N 29°57' W 089°60'2 0.4
2014-Nov-01 01:31N 29°57' W 090°02'5 2.5
2014-Oct-31 23:24N 29°55' W 089°57'4 1.1
2014-Oct-31 19:33N 29°57' W 090°01'4 2.1
2014-Oct-31 17:32N 29°55' W 089°57'2 0.2
2014-Oct-31 04:24N 29°54' W 089°54'10 1.6
2014-Oct-30 22:06N 29°55' W 090°06'1 0.1
2014-Oct-30 11:31N 29°55' W 090°05'1 1.0
2014-Oct-30 10:21N 29°55' W 090°06'1 0.3
2014-Oct-30 08:26N 29°55' W 090°05'5 3.8
2014-Oct-30 07:15N 29°57' W 090°01'0 0.0
2014-Oct-30 06:25N 29°57' W 090°01'1 0.1
2014-Oct-29 19:23N 29°58' W 090°02'1 1.6
2014-Oct-29 18:30N 29°59' W 090°01'2 1.7
2014-Oct-29 17:04N 29°57' W 090°01'5 7.2
2014-Oct-29 16:26N 29°55' W 089°56'0 0.0
2014-Oct-29 08:20N 29°55' W 089°55'1 0.1
2014-Oct-28 20:05N 29°55' W 089°57'1 0.0
2014-Oct-28 06:26N 29°55' W 089°56'5 1.1
2014-Oct-28 02:13N 29°57' W 090°01'0 0.1
2014-Oct-28 01:32N 29°57' W 090°01'4 1.0
2014-Oct-27 21:22N 29°55' W 089°57'1 1.4
2014-Oct-27 20:32N 29°56' W 089°58'3 0.6
2014-Oct-27 15:33N 29°57' W 090°01'5 0.4
2014-Oct-27 04:17N 29°55' W 089°56'4 0.4
2014-Oct-26 19:24N 29°56' W 089°60'16 3.4
2014-Oct-26 14:33N 29°40' W 089°58'17 2.1
2014-Oct-26 06:26N 29°57' W 090°01'4 0.5
2014-Oct-25 22:22N 29°55' W 089°57'5 0.6
2014-Oct-25 13:14N 29°57' W 090°02'3 0.9
2014-Oct-25 09:31N 29°55' W 090°05'4 1.0
2014-Oct-25 05:26N 29°57' W 090°01'2 0.3
2014-Oct-24 23:33N 29°56' W 089°59'0 0.1
2014-Oct-24 19:27N 29°56' W 089°59'2 1.0
2014-Oct-24 17:32N 29°57' W 090°00'20 8.9
2014-Oct-24 15:14N 29°59' W 090°24'1 2.1
2014-Oct-24 14:32N 29°57' W 090°24'4 0.5
2014-Oct-24 07:12N 29°56' W 090°20'10 0.9
2014-Oct-23 20:10N 29°55' W 090°08'5 6.9
2014-Oct-23 19:30N 29°57' W 090°03'2 1.5
2014-Oct-23 18:27N 29°57' W 090°02'6 0.9
2014-Oct-23 12:20N 29°56' W 090°08'1 1.3
2014-Oct-23 11:28N 29°57' W 090°08'2 0.9
2014-Oct-23 09:15N 29°55' W 090°07'1 0.6
2014-Oct-23 07:14N 29°55' W 090°06'0 0.0
2014-Oct-23 06:33N 29°55' W 090°06'0 0.0
2014-Oct-23 05:21N 29°55' W 090°06'0 0.0
2014-Oct-23 02:06N 29°55' W 090°06'1 0.2
2014-Oct-22 19:21N 29°55' W 090°04'1 0.4
2014-Oct-22 17:33N 29°56' W 090°04'  

Dump ship's entire track history